timestamp,surface_pressure_avg,surface_temp_avg,battery_voltage,lat,long
2017-12-11 00:00:00+00:00,232.0414,5.5,12.41,47.84626,-54.09684
2017-12-11 00:10:00+00:00,223.1914,5.5,12.41,47.84626,-54.09684
2017-12-11 00:20:00+00:00,214.1031,5.49,12.49,47.84626,-54.09684
2017-12-11 00:30:00+00:00,221.1431,5.5,12.49,47.84626,-54.09684
2017-12-11 00:40:00+00:00,224.3581,5.5,12.49,47.84626,-54.09684
2017-12-11 00:50:00+00:00,220.4614,5.5,12.49,47.84626,-54.09684
2017-12-11 01:00:00+00:00,215.4598,5.5,12.41,47.84626,-54.09684
2017-12-11 01:10:00+00:00,222.2198,5.5,12.41,47.84626,-54.09684
2017-12-11 01:20:00+00:00,223.5148,5.5,12.49,47.84626,-54.09684
2017-12-11 01:30:00+00:00,222.3814,5.49,12.49,47.84626,-54.09684
2017-12-11 01:40:00+00:00,230.4948,5.49,12.49,47.84626,-54.09684
2017-12-11 01:50:00+00:00,233.9331,5.49,12.49,47.84626,-54.09684
2017-12-11 02:00:00+00:00,230.4514,5.49,12.41,47.84626,-54.09684
2017-12-11 02:10:00+00:00,235.1681,5.48,12.41,47.84626,-54.09684
2017-12-11 02:20:00+00:00,238.4564,5.49,12.49,47.84626,-54.09684
2017-12-11 02:30:00+00:00,239.4531,5.49,12.49,47.84626,-54.09684
2017-12-11 02:40:00+00:00,232.5947,5.49,12.49,47.84626,-54.09684
2017-12-11 02:50:00+00:00,241.0031,5.49,12.49,47.84626,-54.09684
2017-12-11 03:00:00+00:00,247.3097,5.49,12.41,47.84626,-54.09684
2017-12-11 03:10:00+00:00,251.0815,5.49,12.41,47.84626,-54.09684
2017-12-11 03:20:00+00:00,259.5381,5.49,12.49,47.84626,-54.09684
2017-12-11 03:30:00+00:00,268.883,5.49,12.49,47.84626,-54.09684
2017-12-11 03:40:00+00:00,273.5281,5.46,12.49,47.84626,-54.09684
2017-12-11 03:50:00+00:00,272.8331,5.47,12.49,47.84626,-54.09684
2017-12-11 04:00:00+00:00,284.0698,5.49,12.41,47.84626,-54.09684
2017-12-11 04:10:00+00:00,299.6198,5.5,12.41,47.84626,-54.09684
2017-12-11 04:20:00+00:00,300.3797,5.49,12.49,47.84626,-54.09684
2017-12-11 04:30:00+00:00,295.1481,5.49,12.49,47.84626,-54.09684
2017-12-11 04:40:00+00:00,309.2164,5.5,12.49,47.84626,-54.09684
2017-12-11 04:50:00+00:00,318.383,5.4,12.49,47.84626,-54.09684
2017-12-11 05:00:00+00:00,313.8563,5.47,12.41,47.84626,-54.09684
2017-12-11 05:10:00+00:00,312.998,5.5,12.41,47.84626,-54.09684
2017-12-11 05:20:00+00:00,321.0896,5.4,12.49,47.84626,-54.09684
2017-12-11 05:30:00+00:00,320.8698,5.4,12.49,47.84626,-54.09684
2017-12-11 05:40:00+00:00,324.618,5.4,12.49,47.84626,-54.09684
2017-12-11 05:50:00+00:00,336.8997,5.4,12.49,47.84626,-54.09684
2017-12-11 06:00:00+00:00,340.5714,5.4,12.41,47.84626,-54.09684
2017-12-11 06:10:00+00:00,333.0663,5.4,12.41,47.84626,-54.09684
2017-12-11 06:20:00+00:00,334.788,5.43,12.49,47.84626,-54.09684
2017-12-11 06:30:00+00:00,338.8313,5.4,12.49,47.84626,-54.09684
2017-12-11 06:40:00+00:00,329.2863,5.45,12.49,47.84626,-54.09684
2017-12-11 06:50:00+00:00,322.8946,5.5,12.49,47.84626,-54.09684
2017-12-11 07:00:00+00:00,328.2747,5.5,12.41,47.84626,-54.09684
2017-12-11 07:10:00+00:00,326.8613,5.5,12.41,47.84626,-54.09684
2017-12-11 07:20:00+00:00,317.8863,5.5,12.49,47.84626,-54.09684
2017-12-11 07:30:00+00:00,312.733,5.49,12.49,47.84626,-54.09684
2017-12-11 07:40:00+00:00,312.3963,5.5,12.49,47.84626,-54.09684
2017-12-11 07:50:00+00:00,304.0764,5.5,12.49,47.84626,-54.09684
2017-12-11 08:00:00+00:00,293.4347,5.5,12.41,47.84626,-54.09684
2017-12-11 08:10:00+00:00,293.808,5.5,12.41,47.84626,-54.09684
2017-12-11 08:20:00+00:00,289.638,5.5,12.49,47.84626,-54.09684
2017-12-11 08:30:00+00:00,273.2181,5.53,12.41,47.84626,-54.09684
2017-12-11 08:40:00+00:00,265.2364,5.56,12.49,47.84626,-54.09684
2017-12-11 08:50:00+00:00,267.6747,5.5,12.49,47.84626,-54.09684
2017-12-11 09:00:00+00:00,257.0497,5.5,12.41,47.84626,-54.09684
2017-12-11 09:10:00+00:00,237.2831,5.5,12.41,47.84626,-54.09684
2017-12-11 09:20:00+00:00,240.3431,5.5,12.49,47.84626,-54.09684
2017-12-11 09:30:00+00:00,244.0398,5.55,12.41,47.84626,-54.09684
2017-12-11 09:40:00+00:00,236.4098,5.59,12.49,47.84626,-54.09684
2017-12-11 09:50:00+00:00,230.4231,5.6,12.49,47.84626,-54.09684
2017-12-11 10:00:00+00:00,237.2747,5.6,12.41,47.84626,-54.09684
2017-12-11 10:10:00+00:00,236.0314,5.6,12.41,47.84626,-54.09684
2017-12-11 10:20:00+00:00,231.4298,5.6,12.41,47.84626,-54.09684
2017-12-11 10:30:00+00:00,237.0081,5.6,12.41,47.84626,-54.09684
2017-12-11 10:40:00+00:00,245.1347,5.6,12.49,47.84626,-54.09684
2017-12-11 10:50:00+00:00,238.3464,5.6,12.49,47.84626,-54.09684
2017-12-11 11:00:00+00:00,233.1547,5.6,12.41,47.84626,-54.09684
2017-12-11 11:10:00+00:00,241.9064,5.6,12.41,47.84626,-54.09684
2017-12-11 11:20:00+00:00,245.5364,5.6,12.41,47.84626,-54.09684
2017-12-11 11:30:00+00:00,237.8814,5.6,12.41,47.84626,-54.09684
2017-12-11 11:40:00+00:00,231.8697,5.6,12.49,47.84626,-54.09684
2017-12-11 11:50:00+00:00,236.6547,5.6,12.49,47.84626,-54.09684
2017-12-11 12:00:00+00:00,242.6264,5.6,12.41,47.84626,-54.09684
2017-12-11 12:10:00+00:00,240.6081,5.5,12.41,47.84626,-54.09684
2017-12-11 12:20:00+00:00,231.3698,5.52,12.49,47.84626,-54.09684
2017-12-11 12:30:00+00:00,227.8948,5.6,12.49,47.84626,-54.09684
2017-12-11 12:40:00+00:00,227.1615,5.59,12.49,47.84626,-54.09684
2017-12-11 12:50:00+00:00,216.7881,5.6,12.65,47.84626,-54.09684
2017-12-11 13:00:00+00:00,215.0681,5.6,12.97,47.84626,-54.09684
2017-12-11 13:10:00+00:00,227.0065,5.6,13.05,47.84626,-54.09684
2017-12-11 13:20:00+00:00,231.6864,5.6,12.97,47.84626,-54.09684
2017-12-11 13:30:00+00:00,228.2448,5.6,12.97,47.84626,-54.09684
2017-12-11 13:40:00+00:00,229.7397,5.6,12.81,47.84626,-54.09684
2017-12-11 13:50:00+00:00,242.1164,5.6,13.05,47.84626,-54.09684
2017-12-11 14:00:00+00:00,244.6397,5.6,13.21,47.84626,-54.09684
2017-12-11 14:10:00+00:00,244.1197,5.6,12.97,47.84626,-54.09684
2017-12-11 14:20:00+00:00,256.2547,5.6,13.13,47.84626,-54.09684
2017-12-11 14:30:00+00:00,268.9397,5.6,13.13,47.84626,-54.09684
2017-12-11 14:40:00+00:00,260.5614,5.6,13.29,47.84626,-54.09684
2017-12-11 14:50:00+00:00,257.7631,5.6,13.29,47.84626,-54.09684
2017-12-11 15:00:00+00:00,270.3464,5.57,13.21,47.84626,-54.09684
2017-12-11 15:10:00+00:00,272.2364,5.59,13.29,47.84626,-54.09684
2017-12-11 15:20:00+00:00,264.1331,5.6,13.29,47.84626,-54.09684
2017-12-11 15:30:00+00:00,275.1197,5.56,13.13,47.84626,-54.09684
2017-12-11 15:40:00+00:00,291.4697,5.55,13.05,47.84626,-54.09684
2017-12-11 15:50:00+00:00,291.523,5.59,13.29,47.84626,-54.09684
2017-12-11 16:00:00+00:00,292.0397,5.55,13.21,47.84626,-54.09684
2017-12-11 16:10:00+00:00,305.0514,5.56,12.97,47.84626,-54.09684
2017-12-11 16:20:00+00:00,311.0046,5.57,12.97,47.84626,-54.09684
2017-12-11 16:30:00+00:00,311.5797,5.57,13.13,47.84626,-54.09684
2017-12-11 16:40:00+00:00,317.7112,5.57,13.21,47.84626,-54.09684
2017-12-11 16:50:00+00:00,324.278,5.58,12.97,47.84626,-54.09684
2017-12-11 17:00:00+00:00,324.083,5.59,12.89,47.84626,-54.09684
2017-12-11 17:10:00+00:00,330.6146,5.58,12.89,47.84626,-54.09684
2017-12-11 17:20:00+00:00,342.0479,5.59,13.05,47.84626,-54.09684
2017-12-11 17:30:00+00:00,337.1679,5.59,13.05,47.84626,-54.09684
2017-12-11 17:40:00+00:00,332.743,5.6,12.97,47.84626,-54.09684
2017-12-11 17:50:00+00:00,341.3063,5.6,12.97,47.84626,-54.09684
2017-12-11 18:00:00+00:00,344.5296,5.6,12.89,47.84626,-54.09684
2017-12-11 18:10:00+00:00,342.6597,5.6,12.81,47.84626,-54.09684
2017-12-11 18:20:00+00:00,346.7347,5.6,12.89,47.84626,-54.09684
2017-12-11 18:30:00+00:00,353.7596,5.6,12.89,47.84626,-54.09684
2017-12-11 18:40:00+00:00,345.913,5.6,12.89,47.84626,-54.09684
2017-12-11 18:50:00+00:00,340.7096,5.6,12.89,47.84626,-54.09684
2017-12-11 19:00:00+00:00,352.9929,5.55,12.81,47.84626,-54.09684
2017-12-11 19:10:00+00:00,353.1263,5.3,12.81,47.84626,-54.09684
2017-12-11 19:20:00+00:00,339.6996,5.56,12.81,47.84626,-54.09684
2017-12-11 19:30:00+00:00,341.8231,5.6,12.81,47.84626,-54.09684
2017-12-11 19:40:00+00:00,348.978,5.6,12.81,47.84626,-54.09684
2017-12-11 19:50:00+00:00,340.6496,5.6,12.81,47.84626,-54.09684
2017-12-11 20:00:00+00:00,328.8079,5.6,12.81,47.84626,-54.09684
2017-12-11 20:10:00+00:00,335.5896,5.6,12.73,47.84626,-54.09684
2017-12-11 20:20:00+00:00,337.2796,5.62,12.81,47.84626,-54.09684
2017-12-11 20:30:00+00:00,323.3264,5.64,12.81,47.84626,-54.09684
2017-12-11 20:40:00+00:00,316.9147,5.62,12.81,47.84626,-54.09684
2017-12-11 20:50:00+00:00,318.5047,5.57,12.81,47.84626,-54.09684
2017-12-11 21:00:00+00:00,312.3164,5.6,12.73,47.84626,-54.09684
2017-12-11 21:10:00+00:00,294.5347,5.6,12.73,47.84626,-54.09684
2017-12-11 21:20:00+00:00,296.103,5.6,12.81,47.84626,-54.09684
2017-12-11 21:30:00+00:00,298.528,5.6,12.73,47.84626,-54.09684
2017-12-11 21:40:00+00:00,288.6047,5.6,12.81,47.84626,-54.09684
2017-12-11 21:50:00+00:00,278.4531,5.6,12.81,47.84626,-54.09684
2017-12-11 22:00:00+00:00,277.0964,5.6,12.73,47.84626,-54.09684
2017-12-11 22:10:00+00:00,271.5697,5.6,12.73,47.84626,-54.09684
2017-12-11 22:20:00+00:00,262.3897,5.6,12.73,47.84626,-54.09684
2017-12-11 22:30:00+00:00,261.2264,5.6,12.73,47.84626,-54.09684
2017-12-11 22:40:00+00:00,262.7514,5.6,12.73,47.84626,-54.09684
2017-12-11 22:50:00+00:00,259.8914,5.6,12.73,47.84626,-54.09684
2017-12-11 23:00:00+00:00,253.5881,5.53,12.73,47.84626,-54.09684
2017-12-11 23:10:00+00:00,250.263,5.53,12.73,47.84626,-54.09684
2017-12-11 23:20:00+00:00,248.3031,5.59,12.73,47.84626,-54.09684
2017-12-11 23:30:00+00:00,247.6514,5.6,12.73,47.84626,-54.09684
2017-12-11 23:40:00+00:00,242.8331,5.59,12.73,47.84626,-54.09684
2017-12-11 23:50:00+00:00,235.673,5.59,12.73,47.84626,-54.09684
